Regional Weather Roundup
Issued by NWS

Home | Current Version | Previous Version | Text Only | Print | Product List | Glossary On
Versions: 1 2 3 4 5 6 7 8 9 10 11 12 13 14 15 16 17 18 19 20 21 22 23 24 25 26 27 28 29 30 31 32 33 34 35 36 37 38 39 40 41 42 43 44 45 46 47 48 49 50
000
ASUS42 KFFC 311803
RWRGA
WEATHER ROUNDUP FOR GEORGIA
NATIONAL WEATHER SERVICE PEACHTREE CITY GA
200 PM EDT THU JUL 31 2014

NOTE: "FAIR" INDICATES FEW OR NO CLOUDS BELOW 12,000 FEET WITH NO
SIGNIFICANT WEATHER AND/OR OBSTRUCTIONS TO VISIBILITY.

* = USE WITH CAUTION. THE STATIONS MARKED WITH AN ASTERISK MAY NOT
REPORT WEATHER SUCH AS PRECIPITATION, FOG, OR THUNDER AND ARE NOT
QUALITY CONTROLLED BY NWS.

THE REMARK "TC" DENOTES TEMPERATURE READING IN DEGREES CELSIUS.

GAZ001>058-311900-
NORTH GEORGIA

CITY           SKY/WX    TMP DP  RH WIND       PRES   REMARKS
ATLANTA        PTSUNNY   81  68  64 NE5       30.07F
6HR MIN TEMP:  70; 6HR MAX TEMP:  82;

ATHENS         PTSUNNY   80  69  69 NE12      30.08S
6HR MIN TEMP:  69; 6HR MAX TEMP:  80;

CHAMBLEE       CLOUDY    82  68  62 N7        30.07F
6HR MIN TEMP:  69; 6HR MAX TEMP:  82;

PEACHTREE CITY PTSUNNY   83  68  60 E3        30.06F
6HR MIN TEMP:  66; 6HR MAX TEMP:  85;

ROME           CLOUDY    78  63  59 N6        30.09S
6HR MIN TEMP:  66; 6HR MAX TEMP:  78;

WEST ATLANTA   PTSUNNY   81  69  67 N8        30.06F
6HR MIN TEMP:  70; 6HR MAX TEMP:  81;

GAINESVILLE    CLOUDY    77  66  68 E9        30.13S
6HR MIN TEMP:  68; 6HR MAX TEMP:  78;

CARTERSVILLE   CLOUDY    80  66  62 VRB6      30.09S
6HR MIN TEMP:  64; 6HR MAX TEMP:  80;



CITY           SKY/WX    TMP DP  RH WIND       PRES   REMARKS
DALTON*        CLOUDY    72  64  78 CALM      30.10F
LAWRENCEVILLE* PTSUNNY   81  64  57 E8        30.08F
MARIETTA       PTSUNNY   79  69  70 VRB2      30.08F
KENNESAW*      CLOUDY    79  66  65 CALM      30.10F
$$

GAZ059>098-102>109-311900-
CENTRAL GEORGIA

CITY           SKY/WX    TMP DP  RH WIND       PRES   REMARKS
AUGUSTA-BUSH   LGT RAIN  74  70  87 VRB3      30.06R FOG
6HR MIN TEMP:  74; 6HR MAX TEMP:  82; 6HR PCP:  0.28;

AUGUSTA-DANIEL CLOUDY    79  74  84 S15G23    30.08R
6HR MIN TEMP:  75; 6HR MAX TEMP:  85; 6HR PCP:  0.20;

COLUMBUS       PTSUNNY   86  65  49 VRB5      30.02F
6HR MIN TEMP:  70; 6HR MAX TEMP:  87;

MACON          PTSUNNY   86  67  52 MISG      30.01F
6HR MIN TEMP:  69; 6HR MAX TEMP:  87;

ROBINS AFB     PTSUNNY   87  72  59 NE3       30.01F HX  94


CITY           SKY/WX    TMP DP  RH WIND       PRES   REMARKS
LAGRANGE*      PTSUNNY   88  68  50 CALM      30.04S HX  92
SYLVANIA*      CLOUDY    83  76  79 E7        30.04R HX  91
MILLEDGEVILLE* PTSUNNY   75  64  69 E3        30.03F
$$

GAZ099>101-110>166-311900-
SOUTH GEORGIA

CITY           SKY/WX    TMP DP  RH WIND       PRES   REMARKS
SAVANNAH       CLOUDY    90  72  55 S9        29.99F HX  97
6HR MIN TEMP:  76; 6HR MAX TEMP:  90; 6HR PCP:  0.01;

VALDOSTA       MOSUNNY   95  60  31 VRB5      30.00F HX  95
6HR MIN TEMP:  73; 6HR MAX TEMP:  95;

ALMA           PTSUNNY   92  60  34 S6        29.98F HX  91
6HR MIN TEMP:  74; 6HR MAX TEMP:  94;

ST SIMONS      MOSUNNY   88  74  63 SE10      29.99F HX  96
6HR MIN TEMP:  76; 6HR MAX TEMP:  89;

FT STEWART     PTSUNNY   89  70  54 VRB1      29.97F HX  94
ALBANY         PTSUNNY   88  59  37 SW6       30.01F
HUNTER AFB     PTSUNNY   89  74  61 SE7       29.98S HX  97
BRUNSWICK      MOSUNNY   91  63  38 SW8       30.00S HX  92


CITY           SKY/WX    TMP DP  RH WIND       PRES   REMARKS
BAINBRIDGE*    MOSUNNY   91  63  38 N5        30.00F HX  92
MOULTRIE*      SUNNY     88  61  40 S5        30.01F
VIDALIA*         N/A     90  72  55 E5        30.00F HX  96
WAYCROSS*      MOSUNNY   96  63  33 W9        29.99S HX  97
DOUGLAS*       MOSUNNY   93  59  31 SW6       30.00F HX  92
$$


USA.gov is the U.S. government's official web portal to all federal, state and local government web resources and services.